This demonstration page uses our WeatherBlox Daily Observations layout. Learn more.

Left ArrowRight Arrow

53.62937, 11.41316

Hourly Observations for February 25, 2019

Temp ( °F °C ) Dew Point ( °F °C ) Humidity (%) Winds ( mph kmh ) Pressure ( in mb ) Visibility ( mi km ) Precip ( " mm )
6:50 am 06:50 Mostly Clear 27 -3 25 -4 93 93 NE 1 2 30.66 1038 7 11 N/A
7:20 am 07:20 Mostly Sunny 27 -3 25 -4 93 93 VRB 1 2 30.66 1038 7 11 N/A
7:50 am 07:50 Mostly Sunny 27 -3 25 -4 93 93 VRB 1 2 30.66 1038 7 11 N/A
8:20 am 08:20 Mostly Sunny 28 -2 27 -3 93 93 Calm 30.66 1038 7 11 N/A
8:50 am 08:50 Mostly Sunny 32 0 28 -2 87 87 SSW 2 4 30.68 1039 7 11 N/A
9:20 am 09:20 Mostly Sunny 36 2 28 -2 75 75 SW 3 6 30.68 1039 7 11 N/A
9:50 am 09:50 Mostly Sunny 39 4 28 -2 65 65 SSW 5 7 30.65 1038 7 11 N/A
10:20 am 10:20 Mostly Sunny 43 6 32 0 66 66 SW 5 7 30.65 1038 7 11 N/A
10:50 am 10:50 Mostly Sunny 45 7 34 1 66 66 SSW 6 9 30.65 1038 7 11 N/A
11:20 am 11:20 Mostly Sunny 48 9 36 2 62 62 SSW 3 6 30.65 1038 7 11 N/A
11:50 am 11:50 Mostly Sunny 50 10 37 3 62 62 SSW 3 6 30.65 1038 7 11 N/A
12:20 pm 12:20 Mostly Sunny 52 11 37 3 58 58 VRB 3 6 30.65 1038 7 11 N/A
12:50 pm 12:50 Mostly Sunny 54 12 37 3 54 54 WSW 5 7 30.62 1037 7 11 N/A
1:20 pm 13:20 Mostly Sunny 54 12 39 4 58 58 SW 6 9 30.62 1037 7 11 N/A
1:50 pm 13:50 Mostly Sunny 55 13 39 4 55 55 WSW 5 7 30.62 1037 7 11 N/A
2:20 pm 14:20 Mostly Sunny 57 14 37 3 48 48 WSW 6 9 30.59 1036 7 11 N/A
2:50 pm 14:50 Mostly Sunny 57 14 36 2 44 44 WSW 7 11 30.59 1036 7 11 N/A
3:20 pm 15:20 Mostly Sunny 57 14 37 3 48 48 SW 8 13 30.59 1036 7 11 N/A
3:50 pm 15:50 Mostly Sunny 57 14 36 2 44 44 SW 7 11 30.59 1036 7 11 N/A
4:20 pm 16:20 Mostly Sunny 57 14 34 1 41 41 SW 7 11 30.56 1035 7 11 N/A
4:50 pm 16:50 Mostly Sunny 55 13 34 1 44 44 SW 6 9 30.56 1035 7 11 N/A
5:20 pm 17:20 Mostly Sunny 54 12 36 2 51 51 WSW 5 7 30.56 1035 7 11 N/A
5:50 pm 17:50 Mostly Clear 52 11 36 2 54 54 W 3 6 30.59 1036 7 11 N/A
6:20 pm 18:20 Mostly Clear 48 9 34 1 58 58 WSW 5 7 30.59 1036 7 11 N/A
6:50 pm 18:50 Mostly Clear 48 9 34 1 58 58 WSW 5 7 30.56 1035 7 11 N/A
7:20 pm 19:20 Mostly Clear 46 8 34 1 62 62 VRB 2 4 30.59 1036 7 11 N/A
7:50 pm 19:50 Mostly Clear 45 7 34 1 66 66 VRB 2 4 30.59 1036 7 11 N/A

Powered by AerisWeather